OAS699 MROC-SKBO

Flight info

Callsign OAS699
Flight time 1h 33m
Altitude 37000
Route TEJAR3M LIO UA317 BITOR
Aircraft A20N/M-SDE2E3FGHIRWXY/LB1

Departure

Time 2026-05-01 13:33
Airport Juan Santamaría International Airport (MROC)

Arrival

Time 2026-05-01 15:07
Airport El Dorado International Airport (SKBO)
Time Latitude Longitude Altitude Speed Heading
2026-05-01 13:16 9.99706 -84.20451 3014 ft 0 kts 338°
2026-05-01 13:25 9.99697 -84.20447 3011 ft 2 kts 337°
2026-05-01 13:25 9.99682 -84.20441 3017 ft 2 kts 338°
2026-05-01 13:26 9.99667 -84.20435 3012 ft 2 kts 332°
2026-05-01 13:26 9.99659 -84.20422 3012 ft 2 kts 252°
2026-05-01 13:26 9.99665 -84.20409 3021 ft 1 kts 248°
2026-05-01 13:26 9.99666 -84.20407 3014 ft 0 kts 249°
2026-05-01 13:28 9.99662 -84.20414 3021 ft 8 kts 249°
2026-05-01 13:28 9.99633 -84.20492 3009 ft 15 kts 249°
2026-05-01 13:29 9.99533 -84.20761 2998 ft 24 kts 249°
2026-05-01 13:29 9.99402 -84.21111 2981 ft 28 kts 248°
2026-05-01 13:30 9.99156 -84.21779 2950 ft 26 kts 250°
2026-05-01 13:31 9.99097 -84.22006 2938 ft 10 kts 294°
2026-05-01 13:31 9.98993 -84.22190 2927 ft 10 kts 167°
2026-05-01 13:32 9.98933 -84.22105 2930 ft 9 kts 69°
2026-05-01 13:33 9.99669 -84.20146 3151 ft 166 kts 68°
2026-05-01 13:33 10.00457 -84.17885 4586 ft 172 kts 73°
2026-05-01 13:34 10.01147 -84.15522 5819 ft 182 kts 70°
2026-05-01 13:34 10.02047 -84.12845 6540 ft 220 kts 82°
2026-05-01 13:35 10.00799 -84.10025 7663 ft 239 kts 137°
2026-05-01 13:35 9.99460 -84.08927 8034 ft 260 kts 140°
2026-05-01 13:35 9.96433 -84.06624 8982 ft 286 kts 141°
2026-05-01 13:36 9.94928 -84.05469 9681 ft 288 kts 140°
2026-05-01 13:36 9.93280 -84.04198 10285 ft 296 kts 140°
2026-05-01 13:36 9.89808 -84.01452 10681 ft 337 kts 140°
2026-05-01 13:37 9.87943 -83.99961 11179 ft 344 kts 140°
2026-05-01 13:37 9.86053 -83.98453 11829 ft 347 kts 140°
2026-05-01 13:37 9.84205 -83.96873 12406 ft 350 kts 131°
2026-05-01 13:37 9.82896 -83.94820 13139 ft 346 kts 111°
2026-05-01 13:38 9.82478 -83.89930 14149 ft 357 kts 84°
2026-05-01 13:38 9.82697 -83.87424 14740 ft 359 kts 85°
2026-05-01 13:38 9.82909 -83.84887 15253 ft 364 kts 85°
2026-05-01 13:39 9.83116 -83.82302 15840 ft 365 kts 85°
2026-05-01 13:39 9.83317 -83.79734 16371 ft 368 kts 85°
2026-05-01 13:39 9.83521 -83.77119 16822 ft 373 kts 86°
2026-05-01 13:39 9.83713 -83.74488 17382 ft 375 kts 86°
2026-05-01 13:40 9.83896 -83.71838 17853 ft 380 kts 86°
2026-05-01 13:40 9.84078 -83.69153 18318 ft 383 kts 86°
2026-05-01 13:40 9.84262 -83.66459 18787 ft 385 kts 86°
2026-05-01 13:40 9.84449 -83.63733 19119 ft 390 kts 86°
2026-05-01 13:41 9.84653 -83.61018 19518 ft 393 kts 84°
2026-05-01 13:41 9.85116 -83.58270 19864 ft 398 kts 78°
2026-05-01 13:41 9.85685 -83.55512 20243 ft 401 kts 78°
2026-05-01 13:41 9.86252 -83.52730 20615 ft 406 kts 78°
2026-05-01 13:42 9.86822 -83.49909 20946 ft 410 kts 78°
2026-05-01 13:42 9.87398 -83.47060 21320 ft 414 kts 78°
2026-05-01 13:42 9.87975 -83.44198 21729 ft 416 kts 78°
2026-05-01 13:42 9.88557 -83.41316 22094 ft 419 kts 78°
2026-05-01 13:43 9.89143 -83.38410 22454 ft 423 kts 78°
2026-05-01 13:43 9.89734 -83.35477 22813 ft 426 kts 78°
2026-05-01 13:43 9.90328 -83.32526 23172 ft 429 kts 78°
2026-05-01 13:43 9.90927 -83.29551 23505 ft 432 kts 78°
2026-05-01 13:44 9.91531 -83.26550 23793 ft 435 kts 78°
2026-05-01 13:44 9.92137 -83.23539 24109 ft 437 kts 78°
2026-05-01 13:44 9.92746 -83.20509 24416 ft 439 kts 78°
2026-05-01 13:44 9.93358 -83.17464 24703 ft 442 kts 78°
2026-05-01 13:45 9.93972 -83.14406 25010 ft 444 kts 78°
2026-05-01 13:45 9.94590 -83.11331 25312 ft 446 kts 78°
2026-05-01 13:45 9.95210 -83.08240 25596 ft 449 kts 78°
2026-05-01 13:45 9.95701 -83.05113 25862 ft 451 kts 86°
2026-05-01 13:46 9.95661 -83.01931 26124 ft 452 kts 97°
2026-05-01 13:46 9.95065 -82.98802 26385 ft 453 kts 107°
2026-05-01 13:46 9.94088 -82.95756 26649 ft 455 kts 109°
2026-05-01 13:46 9.93101 -82.92702 26921 ft 457 kts 109°
2026-05-01 13:47 9.92127 -82.89673 27176 ft 459 kts 109°
2026-05-01 13:47 9.91125 -82.86547 27434 ft 461 kts 109°
2026-05-01 13:47 9.90146 -82.83495 27691 ft 463 kts 109°
2026-05-01 13:47 9.89148 -82.80385 27938 ft 465 kts 109°
2026-05-01 13:48 9.88146 -82.77263 28181 ft 467 kts 109°
2026-05-01 13:48 9.87139 -82.74128 28438 ft 469 kts 109°
2026-05-01 13:48 9.86124 -82.70971 28785 ft 471 kts 109°
2026-05-01 13:48 9.85118 -82.67822 29224 ft 470 kts 109°
2026-05-01 13:49 9.84099 -82.64654 29304 ft 475 kts 109°
2026-05-01 13:49 9.83068 -82.61460 29507 ft 477 kts 109°
2026-05-01 13:49 9.82034 -82.58253 29731 ft 479 kts 109°
2026-05-01 13:49 9.80986 -82.55041 30018 ft 481 kts 110°
2026-05-01 13:50 9.79879 -82.51831 30311 ft 483 kts 111°
2026-05-01 13:50 9.78751 -82.48620 30525 ft 484 kts 111°
2026-05-01 13:50 9.77620 -82.45402 30757 ft 487 kts 111°
2026-05-01 13:50 9.76502 -82.42220 31186 ft 487 kts 111°
2026-05-01 13:51 9.75391 -82.39026 31703 ft 486 kts 111°
2026-05-01 13:51 9.74278 -82.35791 32091 ft 486 kts 111°
2026-05-01 13:51 9.73159 -82.32557 32423 ft 485 kts 111°
2026-05-01 13:51 9.72039 -82.29338 32732 ft 483 kts 111°
2026-05-01 13:52 9.70922 -82.26130 32989 ft 483 kts 111°
2026-05-01 13:52 9.69807 -82.22927 33244 ft 482 kts 111°
2026-05-01 13:52 9.68692 -82.19722 33499 ft 481 kts 111°
2026-05-01 13:52 9.67581 -82.16526 33730 ft 481 kts 111°
2026-05-01 13:53 9.66470 -82.13334 33961 ft 480 kts 111°
2026-05-01 13:53 9.64249 -82.06952 34437 ft 479 kts 111°
2026-05-01 13:53 9.63143 -82.03774 34644 ft 478 kts 111°
2026-05-01 13:54 9.62039 -82.00605 34841 ft 477 kts 111°
2026-05-01 13:54 9.60934 -81.97433 35024 ft 476 kts 111°
2026-05-01 13:54 9.59830 -81.94266 35194 ft 477 kts 111°
2026-05-01 13:54 9.59100 -81.92171 35320 ft 476 kts 111°
2026-05-01 13:55 9.57625 -81.87944 35597 ft 475 kts 111°
2026-05-01 13:55 9.56896 -81.85854 35709 ft 475 kts 111°
2026-05-01 13:55 9.55798 -81.82706 35874 ft 474 kts 111°
2026-05-01 13:55 9.54698 -81.79554 36036 ft 474 kts 111°
2026-05-01 13:56 9.53600 -81.76410 36205 ft 473 kts 111°
2026-05-01 13:56 9.52502 -81.73268 36361 ft 473 kts 111°
2026-05-01 13:56 9.51404 -81.70124 36522 ft 473 kts 111°
2026-05-01 13:56 9.50307 -81.66987 36666 ft 472 kts 111°
2026-05-01 13:57 9.49211 -81.63850 36808 ft 473 kts 111°
2026-05-01 13:57 9.48112 -81.60708 36902 ft 474 kts 111°
2026-05-01 13:57 9.45892 -81.54367 36916 ft 482 kts 111°
2026-05-01 13:58 9.43632 -81.47915 36917 ft 489 kts 111°
2026-05-01 13:58 9.41351 -81.41403 36919 ft 492 kts 111°
2026-05-01 13:59 9.39058 -81.34861 36918 ft 494 kts 111°
2026-05-01 13:59 9.36753 -81.28289 36919 ft 496 kts 111°
2026-05-01 14:00 9.34437 -81.21694 36919 ft 498 kts 111°
2026-05-01 14:00 9.32119 -81.15090 36916 ft 498 kts 111°
2026-05-01 14:01 9.29814 -81.08533 36907 ft 497 kts 111°
2026-05-01 14:01 9.27432 -81.01962 36911 ft 496 kts 116°
2026-05-01 14:02 9.24149 -80.95854 36913 ft 492 kts 126°
2026-05-01 14:02 9.20377 -80.90074 36909 ft 492 kts 126°
2026-05-01 14:03 9.16638 -80.84300 36909 ft 490 kts 126°
2026-05-01 14:03 9.12898 -80.78528 36909 ft 491 kts 126°
2026-05-01 14:04 9.09153 -80.72753 36903 ft 490 kts 126°
2026-05-01 14:04 9.05411 -80.66985 36903 ft 490 kts 126°
2026-05-01 14:05 9.01665 -80.61215 36903 ft 490 kts 126°
2026-05-01 14:05 8.97924 -80.55455 36892 ft 490 kts 126°
2026-05-01 14:06 8.94178 -80.49689 36903 ft 490 kts 126°
2026-05-01 14:06 8.90432 -80.43930 36895 ft 490 kts 126°
2026-05-01 14:07 8.86688 -80.38174 36895 ft 490 kts 126°
2026-05-01 14:08 8.81068 -80.29539 36890 ft 490 kts 126°
2026-05-01 14:08 8.77322 -80.23788 36889 ft 490 kts 126°
2026-05-01 14:09 8.73578 -80.18040 36890 ft 490 kts 126°
2026-05-01 14:09 8.69836 -80.12297 36879 ft 488 kts 126°
2026-05-01 14:10 8.66098 -80.06566 36884 ft 488 kts 126°
2026-05-01 14:10 8.62363 -80.00841 36873 ft 488 kts 126°
2026-05-01 14:11 8.58628 -79.95117 36872 ft 488 kts 126°
2026-05-01 14:11 8.53088 -79.86631 36862 ft 482 kts 126°
2026-05-01 14:12 8.49418 -79.81014 36867 ft 482 kts 126°
2026-05-01 14:12 8.45731 -79.75373 36867 ft 480 kts 126°
2026-05-01 14:13 8.42651 -79.70661 36865 ft 481 kts 126°
2026-05-01 14:13 8.38368 -79.64114 36865 ft 480 kts 126°
2026-05-01 14:14 8.34683 -79.58482 36876 ft 481 kts 126°
2026-05-01 14:14 8.30998 -79.52853 36878 ft 480 kts 126°
2026-05-01 14:15 8.27315 -79.47229 36878 ft 480 kts 126°
2026-05-01 14:15 8.23627 -79.41600 36881 ft 481 kts 126°
2026-05-01 14:16 8.19923 -79.35950 36888 ft 483 kts 126°
2026-05-01 14:16 8.16215 -79.30295 36889 ft 483 kts 126°
2026-05-01 14:17 8.12505 -79.24639 36884 ft 483 kts 126°
2026-05-01 14:17 8.08797 -79.18987 36884 ft 483 kts 126°
2026-05-01 14:18 8.05088 -79.13338 36887 ft 483 kts 126°
2026-05-01 14:18 8.02002 -79.08638 36889 ft 483 kts 126°
2026-05-01 14:19 7.97681 -79.02061 36890 ft 485 kts 126°
2026-05-01 14:19 7.93955 -78.96392 36890 ft 485 kts 126°
2026-05-01 14:20 7.88359 -78.87880 36890 ft 485 kts 126°
2026-05-01 14:21 7.84630 -78.82213 36889 ft 485 kts 126°
2026-05-01 14:21 7.80898 -78.76542 36888 ft 486 kts 125°
2026-05-01 14:22 7.75285 -78.68019 36896 ft 486 kts 125°
2026-05-01 14:22 7.71537 -78.62328 36889 ft 488 kts 125°
2026-05-01 14:23 7.67781 -78.56629 36889 ft 488 kts 125°
2026-05-01 14:23 7.64031 -78.50940 36889 ft 488 kts 125°
2026-05-01 14:24 7.60277 -78.45248 36892 ft 487 kts 125°
2026-05-01 14:24 7.56520 -78.39553 36895 ft 487 kts 125°
2026-05-01 14:25 7.52764 -78.33862 36895 ft 487 kts 125°
2026-05-01 14:25 7.49011 -78.28178 36895 ft 487 kts 125°
2026-05-01 14:26 7.43377 -78.19647 36900 ft 487 kts 125°
2026-05-01 14:27 7.39628 -78.13972 36897 ft 486 kts 126°
2026-05-01 14:27 7.35877 -78.08299 36900 ft 486 kts 126°
2026-05-01 14:28 7.30251 -77.99793 36900 ft 486 kts 126°
2026-05-01 14:28 7.26525 -77.94162 36909 ft 487 kts 126°
2026-05-01 14:29 7.22770 -77.88488 36909 ft 487 kts 127°
2026-05-01 14:30 7.15247 -77.77162 36913 ft 486 kts 125°
2026-05-01 14:31 7.09629 -77.68646 36908 ft 486 kts 125°
2026-05-01 14:31 7.05875 -77.62978 36911 ft 486 kts 126°
2026-05-01 14:32 7.02117 -77.57317 36911 ft 487 kts 126°
2026-05-01 14:32 6.98343 -77.51630 36909 ft 490 kts 126°
2026-05-01 14:33 6.94581 -77.45961 36912 ft 489 kts 126°
2026-05-01 14:33 6.90806 -77.40273 36911 ft 489 kts 126°
2026-05-01 14:34 6.87023 -77.34577 36908 ft 489 kts 126°
2026-05-01 14:34 6.83244 -77.28887 36910 ft 489 kts 126°
2026-05-01 14:35 6.79460 -77.23192 36908 ft 489 kts 126°
2026-05-01 14:35 6.75666 -77.17485 36907 ft 492 kts 126°
2026-05-01 14:36 6.71862 -77.11763 36907 ft 492 kts 126°
2026-05-01 14:36 6.68057 -77.06043 36908 ft 492 kts 126°
2026-05-01 14:37 6.64246 -77.00315 36911 ft 494 kts 126°
2026-05-01 14:37 6.60421 -76.94568 36911 ft 495 kts 126°
2026-05-01 14:38 6.56596 -76.88822 36914 ft 494 kts 126°
2026-05-01 14:38 6.52763 -76.83068 36914 ft 496 kts 126°
2026-05-01 14:39 6.48916 -76.77293 36930 ft 497 kts 126°
2026-05-01 14:39 6.45085 -76.71543 36926 ft 487 kts 126°
2026-05-01 14:39 6.43232 -76.68759 36931 ft 475 kts 126°
2026-05-01 14:40 6.41384 -76.65988 36931 ft 479 kts 126°
2026-05-01 14:40 6.37645 -76.60387 36947 ft 486 kts 126°
2026-05-01 14:41 6.33856 -76.54708 36947 ft 492 kts 126°
2026-05-01 14:41 6.30032 -76.48977 36979 ft 495 kts 126°
2026-05-01 14:42 6.26186 -76.43211 36979 ft 498 kts 126°
2026-05-01 14:42 6.22329 -76.37433 36980 ft 498 kts 126°
2026-05-01 14:43 6.19118 -76.32626 37005 ft 498 kts 126°
2026-05-01 14:43 6.15263 -76.26856 37005 ft 497 kts 126°
2026-05-01 14:44 6.11428 -76.21117 37018 ft 498 kts 126°
2026-05-01 14:44 6.05763 -76.12642 37019 ft 498 kts 126°
2026-05-01 14:45 5.99967 -76.03977 37017 ft 498 kts 126°
2026-05-01 14:46 5.96102 -75.98202 37014 ft 498 kts 126°
2026-05-01 14:46 5.90308 -75.89544 37011 ft 498 kts 126°
2026-05-01 14:47 5.86435 -75.83761 37014 ft 499 kts 126°
2026-05-01 14:48 5.80628 -75.75091 37006 ft 499 kts 126°
2026-05-01 14:48 5.74821 -75.66424 37018 ft 499 kts 126°
2026-05-01 14:49 5.67070 -75.54863 37026 ft 499 kts 126°
2026-05-01 14:50 5.59357 -75.43364 36667 ft 495 kts 126°
2026-05-01 14:51 5.57437 -75.40503 36074 ft 493 kts 126°
2026-05-01 14:51 5.53618 -75.34814 34592 ft 491 kts 126°
2026-05-01 14:52 5.49810 -75.29145 32912 ft 489 kts 126°
2026-05-01 14:52 5.47910 -75.26318 31975 ft 489 kts 126°
2026-05-01 14:52 5.44107 -75.20659 30388 ft 485 kts 126°
2026-05-01 14:53 5.42232 -75.17869 29744 ft 480 kts 126°
2026-05-01 14:53 5.40364 -75.15089 28723 ft 482 kts 125°
2026-05-01 14:53 5.38484 -75.12293 27799 ft 482 kts 125°
2026-05-01 14:53 5.36601 -75.09492 27259 ft 489 kts 125°
2026-05-01 14:54 5.34676 -75.06633 26690 ft 497 kts 125°
2026-05-01 14:54 5.32752 -75.03773 26216 ft 491 kts 124°
2026-05-01 14:54 5.30841 -75.00933 25359 ft 491 kts 124°
2026-05-01 14:54 5.28941 -74.98108 24591 ft 487 kts 124°
2026-05-01 14:55 5.27045 -74.95288 23980 ft 491 kts 124°
2026-05-01 14:55 5.25138 -74.92453 23523 ft 488 kts 123°
2026-05-01 14:55 5.23247 -74.89642 22810 ft 483 kts 123°
2026-05-01 14:55 5.21380 -74.86868 22031 ft 477 kts 123°
2026-05-01 14:56 5.19543 -74.84136 21394 ft 468 kts 123°
2026-05-01 14:56 5.17725 -74.81433 20788 ft 466 kts 123°
2026-05-01 14:56 5.15919 -74.78750 20168 ft 462 kts 123°
2026-05-01 14:56 5.14137 -74.76101 19582 ft 455 kts 123°
2026-05-01 14:57 5.12396 -74.73514 19233 ft 436 kts 123°
2026-05-01 14:57 5.09191 -74.68754 18538 ft 393 kts 123°
2026-05-01 14:57 5.07667 -74.66492 17573 ft 390 kts 123°
2026-05-01 14:58 5.06162 -74.64256 16693 ft 384 kts 123°
2026-05-01 14:58 5.04685 -74.62059 15982 ft 376 kts 123°
2026-05-01 14:58 5.03255 -74.59933 15539 ft 360 kts 123°
2026-05-01 14:58 5.01878 -74.57889 15076 ft 347 kts 123°
2026-05-01 14:59 5.00550 -74.55918 14607 ft 335 kts 123°
2026-05-01 14:59 4.99265 -74.54011 14164 ft 327 kts 123°
2026-05-01 14:59 4.98012 -74.52149 13710 ft 318 kts 123°
2026-05-01 14:59 4.96753 -74.50276 13282 ft 339 kts 124°
2026-05-01 15:00 4.93967 -74.46133 12412 ft 367 kts 124°
2026-05-01 15:00 4.92555 -74.44035 12217 ft 359 kts 124°
2026-05-01 15:00 4.91180 -74.41993 11902 ft 344 kts 124°
2026-05-01 15:01 4.89893 -74.40081 11830 ft 318 kts 125°
2026-05-01 15:01 4.88707 -74.38322 11839 ft 291 kts 124°
2026-05-01 15:01 4.87624 -74.36715 11852 ft 265 kts 124°
2026-05-01 15:01 4.86623 -74.35231 11912 ft 252 kts 124°
2026-05-01 15:02 4.85643 -74.33783 11920 ft 251 kts 124°
2026-05-01 15:02 4.84984 -74.32834 11931 ft 250 kts 127°
2026-05-01 15:02 4.83359 -74.31200 11932 ft 245 kts 139°
2026-05-01 15:02 4.82095 -74.30132 11861 ft 235 kts 139°
2026-05-01 15:03 4.80888 -74.29097 11785 ft 221 kts 138°
2026-05-01 15:03 4.79806 -74.28140 11694 ft 195 kts 135°
2026-05-01 15:03 4.78923 -74.27210 11567 ft 173 kts 130°
2026-05-01 15:03 4.78211 -74.26344 11406 ft 153 kts 128°
2026-05-01 15:04 4.77567 -74.25512 11024 ft 151 kts 127°
2026-05-01 15:04 4.76927 -74.24664 10710 ft 152 kts 127°
2026-05-01 15:04 4.76282 -74.23809 10406 ft 158 kts 127°
2026-05-01 15:04 4.75617 -74.22925 10074 ft 158 kts 127°
2026-05-01 15:05 4.74963 -74.22059 9779 ft 154 kts 127°
2026-05-01 15:05 4.74317 -74.21200 9552 ft 155 kts 127°
2026-05-01 15:05 4.73668 -74.20338 9308 ft 155 kts 126°
2026-05-01 15:05 4.73021 -74.19479 9083 ft 153 kts 126°
2026-05-01 15:06 4.72377 -74.18645 8864 ft 152 kts 127°
2026-05-01 15:06 4.71734 -74.17803 8631 ft 152 kts 128°
2026-05-01 15:06 4.71086 -74.16965 8430 ft 151 kts 128°
2026-05-01 15:06 4.70488 -74.16170 8373 ft 119 kts 127°
2026-05-01 15:07 4.70172 -74.15749 8373 ft 39 kts 127°
2026-05-01 15:07 4.70048 -74.15577 8373 ft 18 kts 108°
2026-05-01 15:07 4.70115 -74.15480 8372 ft 18 kts 38°
2026-05-01 15:07 4.70210 -74.15411 8373 ft 14 kts 35°
2026-05-01 15:08 4.70232 -74.15335 8373 ft 13 kts 123°
2026-05-01 15:08 4.70177 -74.15265 8373 ft 13 kts 128°
2026-05-01 15:08 4.70119 -74.15188 8373 ft 16 kts 127°
2026-05-01 15:08 4.70047 -74.15092 8373 ft 18 kts 127°
2026-05-01 15:09 4.69968 -74.14987 8373 ft 19 kts 127°
2026-05-01 15:09 4.69888 -74.14881 8373 ft 17 kts 127°
2026-05-01 15:09 4.69921 -74.14794 8373 ft 15 kts 35°
2026-05-01 15:09 4.70012 -74.14725 8373 ft 18 kts 37°
2026-05-01 15:10 4.70120 -74.14643 8373 ft 20 kts 37°
2026-05-01 15:10 4.70255 -74.14476 8373 ft 13 kts 105°
2026-05-01 15:10 4.70246 -74.14400 8373 ft 10 kts 120°
2026-05-01 15:11 4.70204 -74.14346 8373 ft 10 kts 128°
2026-05-01 15:11 4.70155 -74.14346 8373 ft 4 kts 206°
2026-05-01 15:11 4.70150 -74.14348 8373 ft 0 kts 208°